User: anonymous   Login
Location: Unspecified
(0.0000°N, 0.0000°E)
Time: 01:21:46
(UTC+00:00)
Language:

Gurwin Techsat 1B - Orbit

View from above orbital plane
View from above orbital plane
View from above satellite
View from above satellite

Ground track
Ground track

The orbit data is extracted from the following two-line orbital elements,

1 25397U 98043D   18200.43148904 -.00000014  00000-0  12869-4 0  9990
2 25397  98.6508 140.3391 0000439 352.1026   8.0146 14.23648491 40319
Epoch (UTC): 19 July 2018 10:21:20
Eccentricity: 0.0000439
inclination: 98.6508°
perigee height: 813 km
apogee height: 813 km
right ascension of ascending node: 140.3391°
argument of perigee: 352.1026°
revolutions per day: 14.23648491
mean anomaly at epoch: 8.0146°
orbit number at epoch: 4031

The dashed part of the orbit path shows where the satellite is in the earth's shadow,  

DLR